"2016-03-09 00:00:00",1441371,1.765,133.8,6.47,1.264,8.44,102.0407,4.507,5.672,40.05,0,110.1,13.23,5.27,95.8
"2016-03-09 00:00:30",1441372,2.003,131.3,7.4,1.218,8.87,102.0416,4.509,5.725,40.12,0,110.1,13.23,5.28,93.3
"2016-03-09 00:01:00",1441373,1.15,126.7,3.692,0.121,7.115,102.0393,4.504,5.546,39.95,0,110.1,13.28,5.27,88.7
"2016-03-09 00:01:30",1441374,2.496,136.3,8.63,1.379,9.18,102.0394,4.504,5.647,40.08,0,110.1,13.23,5.27,98.3
"2016-03-09 00:02:00",1441375,2.461,132.4,5.499,1.259,8.06,102.0346,4.492,5.67,40.2,0,110.1,13.23,5.26,94.4
"2016-03-09 00:02:30",1441376,1.735,129.5,5.324,0.705,6.981,102.033,4.487,5.553,40.16,0,110.1,13.23,5.26,91.5
"2016-03-09 00:03:00",1441377,2.065,137.9,7.564,1.229,8.2,102.0336,4.489,5.695,40.36,0,110.1,13.23,5.26,99.9
"2016-03-09 00:03:30",1441378,2.949,141.4,8.84,1.337,9.87,102.0206,4.456,5.714,40.67,0,110.1,13.24,5.22,103.4
"2016-03-09 00:04:00",1441379,2.603,138.8,7.798,1.306,8.78,102.0224,4.46,5.621,40.88,0,110.1,13.23,5.23,100.8
"2016-03-09 00:04:30",1441380,2.121,137.9,5.74,1.226,8.54,102.0232,4.463,5.6,41.06,0,110.1,13.23,5.23,99.9
"2016-03-09 00:05:00",1441381,1.923,145.5,8.13,1.047,8.26,102.0247,4.466,5.593,41.17,0,110.1,13.23,5.23,107.5
"2016-03-09 00:05:30",1441382,2.164,145.2,6.685,1.363,8.51,102.0267,4.471,5.594,41.22,0,110.1,13.23,5.24,107.2
"2016-03-09 00:06:00",1441383,1.302,137.3,4.702,0.526,7.115,102.0259,4.469,5.549,41.09,0,110,13.23,5.24,99.3
"2016-03-09 00:06:30",1441384,2.107,149.1,8.79,1.231,8.43,102.0191,4.452,5.56,41.03,0,110,13.23,5.22,111.1
"2016-03-09 00:07:00",1441385,2.292,149,7.984,1.29,8.91,102.0157,4.443,5.679,40.97,0,110,13.23,5.21,111.0
"2016-03-09 00:07:30",1441386,2.136,155.2,6.82,1.354,9.3,102.0121,4.434,5.561,40.74,0,110,13.23,5.20,117.2
"2016-03-09 00:08:00",1441387,2.288,153.5,6.709,1.323,9.36,102.0119,4.433,5.553,40.67,0,110,13.23,5.20,115.5
"2016-03-09 00:08:30",1441388,1.062,149.7,4.477,0.098,7.072,102.0124,4.435,5.459,40.55,0,110,13.28,5.20,111.7
"2016-03-09 00:09:00",1441389,2.477,161.2,7.727,1.344,9.91,102.0025,4.41,5.603,40.73,0,110,13.23,5.18,123.2
"2016-03-09 00:09:30",1441390,2.073,155.8,5.66,1.237,8.51,102,4.403,5.542,40.79,0,110,13.24,5.17,117.8
"2016-03-09 00:10:00",1441391,1.27,140.1,5.435,0.173,6.685,102,4.403,5.437,40.76,0,110,13.29,5.17,102.1
"2016-03-09 00:10:30",1441392,1.283,148,7.684,0.724,7.219,101.9989,4.4,5.481,40.83,0,110,13.24,5.17,110.0
"2016-03-09 00:11:00",1441393,2.671,162.8,7.191,1.346,9.96,101.9904,4.379,5.586,40.98,0,110,13.24,5.15,124.8
"2016-03-09 00:11:30",1441394,2.234,157.2,6.747,1.386,9.62,101.9839,4.362,5.57,41.03,0,110,13.24,5.13,119.2
"2016-03-09 00:12:00",1441395,2.127,153.2,7.86,1.349,9.58,101.9785,4.348,5.579,41.06,0,110,13.24,5.12,115.2
"2016-03-09 00:12:30",1441396,1.304,150.2,8.54,1.118,7.854,101.9684,4.322,5.421,40.92,0,110,13.24,5.09,112.2
"2016-03-09 00:13:00",1441397,1.4,150.9,12.63,1.292,8.79,101.9661,4.317,5.582,41.08,0,110,13.24,5.08,112.9
"2016-03-09 00:13:30",1441398,1.031,138,10.19,1.19,8.04,101.9661,4.317,5.415,40.94,0,110,13.24,5.08,100.0
"2016-03-09 00:14:00",1441399,0.673,130.2,3.652,0.118,6.707,101.9661,4.317,5.377,40.92,0,110,13.29,5.08,92.2
"2016-03-09 00:14:30",1441400,1.029,127.4,2.649,0.088,6.704,101.9641,4.312,5.378,40.96,0,110,13.29,5.08,89.4
"2016-03-09 00:15:00",1441401,1.988,124.6,7.62,1.304,8.64,101.9571,4.294,5.559,41.27,0,110,13.25,5.06,86.6
"2016-03-09 00:15:30",1441402,2.63,129.4,7.531,1.377,9.63,101.9503,4.276,5.529,41.32,0,110,13.25,5.04,91.4
"2016-03-09 00:16:00",1441403,2.579,145.8,8.74,1.422,10.15,101.9489,4.273,5.503,41.28,0,110,13.25,5.04,107.8
"2016-03-09 00:16:30",1441404,1.218,154,4.404,0.739,8.13,101.9424,4.256,5.507,41.33,0,110,13.25,5.02,116.0
"2016-03-09 00:17:00",1441405,2.04,165.3,9.75,1.476,9.57,101.9336,4.234,5.468,41.32,0,110,13.25,5.00,127.3
"2016-03-09 00:17:30",1441406,1.183,152,8.58,1.129,7.875,101.9339,4.234,5.423,41.37,0,110,13.25,5.00,114.0
"2016-03-09 00:18:00",1441407,0.314,138.1,4.653,0.068,6.516,101.9348,4.237,5.312,41.25,0,110,13.29,5.00,100.1
"2016-03-09 00:18:30",1441408,0.567,153.2,6.739,0.132,6.637,101.9337,4.234,5.321,41.25,0,110,13.29,5.00,115.2
"2016-03-09 00:19:00",1441409,0.891,158.3,12.14,1.039,7.564,101.9329,4.232,5.322,41.33,0,110,13.25,5.00,120.3
"2016-03-09 00:19:30",1441410,1.747,157.9,11.06,1.363,10.02,101.9291,4.222,5.511,41.55,0,110,13.25,4.99,119.9
"2016-03-09 00:20:00",1441411,1.301,142.7,8.97,1.319,8.84,101.9322,4.23,5.439,41.52,0,110,13.25,5.00,104.7
"2016-03-09 00:20:30",1441412,1.221,147.1,7.448,1.217,8.76,101.9263,4.215,5.409,41.52,0,110,13.25,4.98,109.1
"2016-03-09 00:21:00",1441413,1.302,148.4,9.44,1.199,8.02,101.9167,4.191,5.316,41.42,0,110,13.24,4.96,110.4
"2016-03-09 00:21:30",1441414,1.473,143.6,6.935,1.181,8.77,101.919,4.196,5.433,41.54,0,110,13.24,4.96,105.6
"2016-03-09 00:22:00",1441415,1.493,148.9,8.35,1.137,7.832,101.9222,4.205,5.286,41.33,0,110,13.24,4.97,110.9
"2016-03-09 00:22:30",1441416,0.903,149,6.224,0.094,6.704,101.9213,4.202,5.246,41.3,0,110,13.29,4.97,111.0
"2016-03-09 00:23:00",1441417,0.648,142.5,5.853,0.129,6.79,101.9257,4.213,5.256,41.29,0,110,13.29,4.98,104.5
"2016-03-09 00:23:30",1441418,1.368,142.3,5.503,1.263,8.41,101.9212,4.202,5.369,41.41,0,110,13.24,4.97,104.3
"2016-03-09 00:24:00",1441419,1.583,144.2,9.49,1.355,9.15,101.9155,4.188,5.436,41.51,0,110,13.25,4.95,106.2
"2016-03-09 00:24:30",1441420,1.838,141.5,8.05,1.417,9.97,101.9136,4.183,5.4,41.47,0,110,13.24,4.95,103.5
"2016-03-09 00:25:00",1441421,0.627,140.3,4.827,0.8,7.437,101.9091,4.171,5.212,41.3,0,110,13.24,4.94,102.3
"2016-03-09 00:25:30",1441422,1.121,140.2,7.422,1.191,8.11,101.9077,4.168,5.318,41.43,0,110,13.25,4.93,102.2
"2016-03-09 00:26:00",1441423,1.141,147.8,7.324,1.217,8.38,101.9034,4.157,5.35,41.49,0,110,13.25,4.92,109.8
"2016-03-09 00:26:30",1441424,0.584,155,2.328,0.056,6.743,101.8995,4.147,5.191,41.35,0,110,13.3,4.91,117.0
"2016-03-09 00:27:00",1441425,0.652,146.9,5.007,0.071,6.696,101.8989,4.145,5.186,41.34,0,110,13.3,4.91,108.9
"2016-03-09 00:27:30",1441426,0.768,168.3,4.778,0.079,6.922,101.8989,4.145,5.182,41.39,0,110,13.3,4.91,130.3
"2016-03-09 00:28:00",1441427,1.644,162.7,10.84,1.374,9.53,101.8989,4.145,5.395,41.83,0,109.9,13.26,4.91,124.7
"2016-03-09 00:28:30",1441428,2.185,150.3,8.76,1.304,10,101.8989,4.145,5.346,41.91,0,110,13.26,4.91,112.3
"2016-03-09 00:29:00",1441429,1.844,152.3,8.19,1.433,9.77,101.8981,4.143,5.366,41.8,0,110,13.26,4.91,114.3
"2016-03-09 00:29:30",1441430,0.725,142,2.983,0.064,7.238,101.8956,4.137,5.171,41.49,0,110,13.3,4.90,104.0
"2016-03-09 00:30:00",1441431,1.76,147.8,6.451,1.399,9.39,101.8879,4.117,5.357,41.64,0,110,13.26,4.88,109.8
"2016-03-09 00:30:30",1441432,0.929,143.9,3.847,0.964,7.604,101.8843,4.108,5.198,41.49,0,110,13.26,4.87,105.9
"2016-03-09 00:31:00",1441433,0.608,141.1,3.697,0.059,6.623,101.8803,4.098,5.147,41.42,0,110,13.31,4.86,103.1
"2016-03-09 00:31:30",1441434,0.553,140.7,5.313,0.063,6.487,101.8704,4.072,5.143,41.44,0,110,13.31,4.84,102.7
"2016-03-09 00:32:00",1441435,1.245,156.7,8.29,1.246,8.2,101.8662,4.061,5.192,41.51,0,110,13.26,4.83,118.7
"2016-03-09 00:32:30",1441436,1.611,164.7,8.39,1.351,9.78,101.865,4.059,5.324,41.66,0,110,13.26,4.82,126.7
"2016-03-09 00:33:00",1441437,2.026,163.4,9.14,1.316,9.62,101.865,4.059,5.287,41.65,0,110,13.26,4.82,125.4
"2016-03-09 00:33:30",1441438,1.626,161.3,8.39,1.316,8.82,101.865,4.059,5.223,41.59,0,110,13.26,4.82,123.3
"2016-03-09 00:34:00",1441439,1.522,159.8,6.139,1.273,8.43,101.865,4.059,5.23,41.61,0,110,13.26,4.82,121.8
"2016-03-09 00:34:30",1441440,2.297,164.4,8.35,1.423,9.62,101.865,4.059,5.285,41.67,0,110,13.26,4.82,126.4
"2016-03-09 00:35:00",1441441,0.671,164.5,4.208,0.078,6.948,101.865,4.059,5.12,41.52,0,110,13.31,4.82,126.5
"2016-03-09 00:35:30",1441442,0.456,155.1,6.134,0.091,6.667,101.865,4.059,5.118,41.52,0,110,13.31,4.82,117.1
"2016-03-09 00:36:00",1441443,0.447,152.4,5.132,0.045,6.646,101.865,4.059,5.128,41.51,0,110,13.31,4.82,114.4
"2016-03-09 00:36:30",1441444,1.293,155.1,7.664,1.218,8.4,101.865,4.059,5.24,41.63,0,110,13.27,4.82,117.1
"2016-03-09 00:37:00",1441445,2.385,157.2,8.6,1.32,10.75,101.865,4.059,5.336,41.73,0,110,13.27,4.82,119.2
"2016-03-09 00:37:30",1441446,1.74,151.9,7.627,1.358,9.96,101.865,4.059,5.302,41.69,0,110,13.26,4.82,113.9
"2016-03-09 00:38:00",1441447,0.508,151.1,6.853,0.5,7.524,101.8647,4.058,5.104,41.41,0,110,13.26,4.82,113.1
"2016-03-09 00:38:30",1441448,1.501,160.2,6.217,1.38,9.25,101.8645,4.057,5.297,41.64,0,110,13.26,4.82,122.2
"2016-03-09 00:39:00",1441449,1.545,157.3,7.431,1.313,8.78,101.8636,4.055,5.214,41.55,0,110,13.26,4.82,119.3
"2016-03-09 00:39:30",1441450,0.71,150.9,2.442,0.037,6.746,101.8605,4.047,5.107,41.48,0,110,13.3,4.81,112.9
"2016-03-09 00:40:00",1441451,0.732,151.4,1.597,0.043,6.813,101.8585,4.042,5.098,41.45,0,110,13.3,4.81,113.4
"2016-03-09 00:40:30",1441452,0.872,150.6,3.973,0.706,7.463,101.8574,4.039,5.089,41.43,0,110,13.26,4.81,112.6
"2016-03-09 00:41:00",1441453,1.855,158,6.67,1.373,9.07,101.8543,4.031,5.203,41.53,0,110,13.26,4.80,120.0
"2016-03-09 00:41:30",1441454,1.897,162.3,7.804,1.324,9.93,101.8523,4.026,5.317,41.63,0,110,13.26,4.79,124.3
"2016-03-09 00:42:00",1441455,1.352,157.6,6.801,1.154,9,101.8509,4.023,5.205,41.51,0,110,13.26,4.79,119.6
"2016-03-09 00:42:30",1441456,1.257,155.3,7.337,1.172,8.53,101.8486,4.017,5.202,41.53,0,110,13.26,4.78,117.3
"2016-03-09 00:43:00",1441457,1.389,150,6.285,1.231,8.38,101.8486,4.017,5.226,41.55,0,110,13.26,4.78,112.0
"2016-03-09 00:43:30",1441458,0.634,148.2,1.932,0.05,6.765,101.8481,4.015,5.095,41.42,0,110,13.31,4.78,110.2
"2016-03-09 00:44:00",1441459,0.62,144.4,2.242,0.056,6.637,101.8478,4.015,5.107,41.39,0,110,13.31,4.78,106.4
"2016-03-09 00:44:30",1441460,0.799,153,2.525,0.056,6.768,101.8464,4.011,5.097,41.41,0,110,13.31,4.78,115.0
"2016-03-09 00:45:00",1441461,1.515,157.5,6.845,1.181,8.34,101.8458,4.01,5.181,41.58,0,110,13.27,4.78,119.5
"2016-03-09 00:45:30",1441462,2.16,161.9,6.463,1.408,9.92,101.8455,4.009,5.279,41.8,0,110,13.27,4.77,123.9
"2016-03-09 00:46:00",1441463,2.197,158.8,7.805,1.396,10.27,101.8496,4.019,5.259,41.83,0,110,13.27,4.79,120.8
"2016-03-09 00:46:30",1441464,1.356,159.9,4.968,1.288,8.5,101.8536,4.029,5.107,41.74,0,110,13.27,4.80,121.9
"2016-03-09 00:47:00",1441465,1.37,161.8,7.849,1.307,8.93,101.8527,4.027,5.282,41.92,0,110,13.27,4.79,123.8
"2016-03-09 00:47:30",1441466,1.018,157.6,5.426,1.067,7.656,101.8513,4.024,5.089,41.73,0,110,13.27,4.79,119.6
"2016-03-09 00:48:00",1441467,0.51,154.4,3.099,0.036,6.557,101.8465,4.011,5.094,41.72,0,110,13.32,4.78,116.4
"2016-03-09 00:48:30",1441468,0.431,155.5,4.395,0.045,6.717,101.8426,4.001,5.078,41.68,0,110,13.32,4.77,117.5
"2016-03-09 00:49:00",1441469,0.44,154.6,1.564,0.034,6.76,101.8409,3.997,5.078,41.65,0,110,13.32,4.76,116.6
"2016-03-09 00:49:30",1441470,1.388,164.4,8.68,1.317,8.96,101.8446,4.007,5.229,41.8,0,110,13.27,4.77,126.4
"2016-03-09 00:50:00",1441471,1.989,179.6,7.859,1.422,10.87,101.8461,4.01,5.245,41.86,0,110,13.27,4.78,141.6
"2016-03-09 00:50:30",1441472,1.31,183.7,7.947,1.284,10.47,101.8475,4.014,5.258,41.9,0,110,13.27,4.78,145.7
"2016-03-09 00:51:00",1441473,1.759,183.1,9.78,1.394,10.2,101.8495,4.019,5.12,41.76,0,110,13.27,4.79,145.1
"2016-03-09 00:51:30",1441474,1.517,175.5,8.29,1.368,9.64,101.8493,4.018,5.279,41.9,0,110,13.27,4.78,137.5
"2016-03-09 00:52:00",1441475,0.76,176.6,4.657,0.986,7.618,101.8501,4.021,5.053,41.66,0,110,13.27,4.79,138.6
"2016-03-09 00:52:30",1441476,0.416,176.3,2.245,0.048,6.992,101.8502,4.021,5.063,41.66,0,110,13.32,4.79,138.3
"2016-03-09 00:53:00",1441477,0.39,179.5,1.573,0.056,7.072,101.8451,4.008,5.071,41.68,0,110,13.32,4.77,141.5
"2016-03-09 00:53:30",1441478,0.354,177.6,2.043,0.07,7.297,101.8445,4.006,5.061,41.68,0,110,13.32,4.77,139.6
"2016-03-09 00:54:00",1441479,0.668,184.7,5.738,0.856,8.01,101.8429,4.002,5.176,41.79,0,110,13.27,4.77,146.7
"2016-03-09 00:54:30",1441480,2.051,192.7,8.55,1.388,10.71,101.8412,3.998,5.221,41.88,0,110,13.27,4.76,154.7
"2016-03-09 00:55:00",1441481,2.17,194.3,8.13,1.369,11.28,101.8401,3.995,5.232,41.92,0,109.9,13.27,4.76,156.3
"2016-03-09 00:55:30",1441482,0.99,185.7,7.285,1.079,9.63,101.8386,3.991,5.23,41.92,0,109.9,13.27,4.76,147.7
"2016-03-09 00:56:00",1441483,1.178,188.8,7.459,1.248,8.87,101.8412,3.998,5.163,41.88,0,109.9,13.26,4.76,150.8
"2016-03-09 00:56:30",1441484,0.739,189.6,5.276,0.965,7.986,101.8404,3.996,5.108,41.83,0,109.9,13.27,4.76,151.6
"2016-03-09 00:57:00",1441485,0.282,184.1,2.045,0.094,7.061,101.839,3.992,5.041,41.73,0,109.9,13.31,4.76,146.1
"2016-03-09 00:57:30",1441486,0.262,184.5,3.609,0.035,6.974,101.8311,3.972,5.038,41.74,0,109.9,13.31,4.74,146.5
"2016-03-09 00:58:00",1441487,0.242,179.5,2.115,0.036,6.986,101.83,3.969,5.033,41.73,0,109.9,13.32,4.74,141.5
"2016-03-09 00:58:30",1441488,0.211,184.7,2.166,0.027,7.449,101.8286,3.966,5.036,41.7,0,109.9,13.31,4.73,146.7
"2016-03-09 00:59:00",1441489,1.673,203.3,9.61,1.415,10.28,101.8274,3.963,5.13,41.82,0,109.9,13.27,4.73,165.3
"2016-03-09 00:59:30",1441490,1.956,202.9,6.979,1.383,11.19,101.8289,3.966,5.261,41.95,0,109.9,13.27,4.73,164.9
"2016-03-09 01:00:00",1441491,0.815,191.7,5.619,1.091,8.8,101.8309,3.971,5.02,41.76,0,109.9,13.28,4.74,153.7
"2016-03-09 01:00:30",1441492,1.702,198.7,9.34,1.444,10.35,101.83,3.969,5.166,41.9,0,109.9,13.27,4.74,160.7
"2016-03-09 01:01:00",1441493,1.125,195.4,5.088,1.265,8.47,101.8309,3.971,5.112,41.85,0,109.9,13.28,4.74,157.4
"2016-03-09 01:01:30",1441494,0.413,198,2.316,0.034,6.777,101.8315,3.973,5.01,41.74,0,109.9,13.32,4.74,160.0
"2016-03-09 01:02:00",1441495,0.364,200.8,0.928,0.045,6.783,101.8312,3.972,4.995,41.77,0,109.9,13.32,4.74,162.8
"2016-03-09 01:02:30",1441496,0.356,207.8,3.126,0.058,6.662,101.8309,3.971,4.997,41.81,0,109.9,13.32,4.74,169.8
"2016-03-09 01:03:00",1441497,0.291,204.5,3.358,0.07,7.032,101.8301,3.969,4.991,41.83,0,109.9,13.33,4.74,166.5
"2016-03-09 01:03:30",1441498,0.981,203.1,4.476,1.241,9.1,101.8267,3.961,5.119,41.97,0,109.9,13.29,4.73,165.1
"2016-03-09 01:04:00",1441499,1.803,214.3,10.84,1.377,10.55,101.8176,3.938,5.211,42.06,0,109.9,13.29,4.70,176.3
"2016-03-09 01:04:30",1441500,1.143,213.5,8.44,1.324,9.17,101.8151,3.931,5.15,42,0,109.9,13.29,4.70,175.5
"2016-03-09 01:05:00",1441501,0.169,221.9,4.547,0.043,7.026,101.8151,3.931,4.966,41.84,0,109.9,13.33,4.70,183.9
"2016-03-09 01:05:30",1441502,0.805,229.6,7.553,1.26,8.46,101.8122,3.924,5.075,41.95,0,109.9,13.28,4.69,191.6
"2016-03-09 01:06:00",1441503,1.478,222.3,12.83,1.411,9.5,101.8083,3.914,5.136,41.97,0,109.9,13.28,4.68,184.3
"2016-03-09 01:06:30",1441504,0.076,214.4,2.116,0.04,6.785,101.7995,3.891,4.968,41.82,0,109.9,13.33,4.66,176.4
"2016-03-09 01:07:00",1441505,0.089,211.4,5.103,0.028,6.855,101.7981,3.888,4.947,41.81,0,109.9,13.33,4.65,173.4
"2016-03-09 01:07:30",1441506,0.031,194.7,4.338,0.041,6.984,101.7978,3.887,4.949,41.8,0,109.9,13.33,4.65,156.7
"2016-03-09 01:08:00",1441507,0.113,189.2,5.963,0.042,7.258,101.7978,3.887,4.989,41.95,0,109.9,13.33,4.65,151.2
"2016-03-09 01:08:30",1441508,1.587,207.8,9.32,1.386,9.97,101.7978,3.887,5.078,42.26,0,109.9,13.29,4.65,169.8
"2016-03-09 01:09:00",1441509,0.52,205.5,3.928,1.033,8.43,101.7978,3.887,5.043,42.36,0,109.9,13.29,4.65,167.5
"2016-03-09 01:09:30",1441510,0.904,209,8.39,1.241,8.77,101.7978,3.887,5.095,42.44,0,109.9,13.29,4.65,171.0
"2016-03-09 01:10:00",1441511,0.801,210,9.31,1.18,8.06,101.7978,3.887,5.017,42.4,0,109.9,13.29,4.65,172.0
"2016-03-09 01:10:30",1441512,0.048,194.6,3.811,0.034,6.787,101.7978,3.887,4.913,42.3,0,109.9,13.33,4.65,156.6
"2016-03-09 01:11:00",1441513,1.332,209.4,5.75,1.385,9.47,101.7978,3.887,5.067,42.49,0,109.9,13.28,4.65,171.4
"2016-03-09 01:11:30",1441514,0.859,204.1,8.44,1.263,8.39,101.7978,3.887,4.993,42.43,0,109.9,13.28,4.65,166.1
"2016-03-09 01:12:00",1441515,0.001,189.2,8.25,0.088,7.246,101.7953,3.881,4.901,42.39,0,109.9,13.32,4.65,151.2
"2016-03-09 01:12:30",1441516,0.202,177.4,3.39,0.046,7.06,101.7933,3.875,4.89,42.4,0,109.9,13.32,4.64,139.4
"2016-03-09 01:13:00",1441517,0.24,178.6,3.19,0.06,7.162,101.7862,3.857,4.905,42.4,0,109.9,13.32,4.62,140.6
"2016-03-09 01:13:30",1441518,1.724,194.9,7.605,1.402,9.8,101.7828,3.849,5.003,42.64,0,109.9,13.28,4.61,156.9
"2016-03-09 01:14:00",1441519,1.076,195.7,5.682,1.176,8.55,101.7777,3.836,4.966,42.65,0,109.9,13.28,4.60,157.7
"2016-03-09 01:14:30",1441520,0.67,199.8,5.665,1.027,8.01,101.7724,3.822,4.969,42.65,0,109.9,13.28,4.59,161.8
"2016-03-09 01:15:00",1441521,1.292,194.3,8.27,1.297,8.73,101.7676,3.81,4.973,42.66,0,109.9,13.28,4.58,156.3
"2016-03-09 01:15:30",1441522,0.961,190.6,5.426,1.166,8.59,101.7639,3.8,4.976,42.76,0,109.9,13.28,4.57,152.6
"2016-03-09 01:16:00",1441523,1.644,205.4,8.32,1.439,9.8,101.7642,3.801,5.063,42.69,0,109.9,13.28,4.57,167.4
"2016-03-09 01:16:30",1441524,0.624,205.2,5.57,0.977,7.796,101.7665,3.807,4.937,42.47,0,109.9,13.29,4.57,167.2
"2016-03-09 01:17:00",1441525,0.171,204,1.586,0.022,6.905,101.7665,3.807,4.85,42.38,0,109.9,13.33,4.57,166.0
"2016-03-09 01:17:30",1441526,0.093,209.3,1.683,0.028,7.034,101.7682,3.811,4.84,42.32,0,109.9,13.34,4.58,171.3
"2016-03-09 01:18:00",1441527,0.888,207.9,5.81,1.242,8.65,101.7697,3.815,4.941,42.48,0,109.9,13.29,4.58,169.9
"2016-03-09 01:18:30",1441528,0.94,211.4,6.894,1.232,8.74,101.7714,3.82,4.965,42.63,0,109.9,13.29,4.58,173.4
"2016-03-09 01:19:00",1441529,0.244,210.5,2.459,0.025,6.789,101.7714,3.82,4.814,42.5,0,109.9,13.34,4.58,172.5
"2016-03-09 01:19:30",1441530,0.13,204.8,2.875,0.019,6.903,101.7711,3.819,4.83,42.51,0,109.9,13.34,4.58,166.8
"2016-03-09 01:20:00",1441531,1.517,205.8,10.42,1.371,9.65,101.7692,3.814,5.019,42.68,0,109.9,13.29,4.58,167.8
"2016-03-09 01:20:30",1441532,0.334,202.4,3.063,0.676,7.326,101.7652,3.804,4.872,42.56,0,109.9,13.29,4.57,164.4
"2016-03-09 01:21:00",1441533,0.753,209.9,6.335,1.195,8.26,101.7616,3.794,4.91,42.6,0,109.9,13.29,4.56,171.9
"2016-03-09 01:21:30",1441534,1.302,214.8,6.56,1.376,8.99,101.7584,3.786,4.913,42.62,0,109.9,13.29,4.55,176.8
"2016-03-09 01:22:00",1441535,0.104,211.1,2.379,0.027,6.966,101.7565,3.781,4.812,42.52,0,109.9,13.34,4.55,173.1
"2016-03-09 01:22:30",1441536,0.048,217.6,1.822,0.021,6.914,101.7509,3.767,4.799,42.5,0,109.9,13.34,4.53,179.6
"2016-03-09 01:23:00",1441537,1.204,219.5,7.534,1.367,9.22,101.7449,3.752,4.935,42.62,0,109.9,13.29,4.52,181.5
"2016-03-09 01:23:30",1441538,0.908,208,6.57,1.219,8.51,101.7449,3.752,4.874,42.57,0,109.9,13.29,4.52,170.0
"2016-03-09 01:24:00",1441539,0.053,203.2,2.05,0.047,6.835,101.7467,3.756,4.794,42.47,0,109.9,13.34,4.52,165.2
"2016-03-09 01:24:30",1441540,0.023,203.8,2.064,0.035,6.576,101.7461,3.755,4.788,42.46,0,109.9,13.34,4.52,165.8
"2016-03-09 01:25:00",1441541,0.045,197.4,3.469,0.044,6.777,101.747,3.757,4.847,42.57,0,109.9,13.34,4.52,159.4
"2016-03-09 01:25:30",1441542,1.519,205,6.891,1.392,9.17,101.7473,3.758,4.907,42.66,0,109.9,13.3,4.52,167.0
"2016-03-09 01:26:00",1441543,0.479,199.6,5.888,0.852,8.05,101.7427,3.746,4.875,42.62,0,109.9,13.3,4.51,161.6
"2016-03-09 01:26:30",1441544,0.903,201.7,6.324,1.187,8.79,101.7377,3.733,4.872,42.64,0,109.9,13.29,4.50,163.7
"2016-03-09 01:27:00",1441545,0.815,194.4,5.666,1.203,9.05,101.7314,3.718,4.906,42.74,0,109.9,13.3,4.48,156.4
"2016-03-09 01:27:30",1441546,0.121,194.1,2.661,0.02,7.23,101.7303,3.715,4.765,42.62,0,109.9,13.34,4.48,156.1
"2016-03-09 01:28:00",1441547,1.319,207.9,5.61,1.331,9.23,101.7218,3.693,4.854,42.74,0,109.9,13.29,4.46,169.9
"2016-03-09 01:28:30",1441548,1.04,196.3,5.762,1.234,8.62,101.7153,3.676,4.845,42.78,0,109.9,13.29,4.44,158.3
"2016-03-09 01:29:00",1441549,0.338,196.5,2.931,0.034,6.943,101.7148,3.675,4.745,42.75,0,109.9,13.33,4.44,158.5
"2016-03-09 01:29:30",1441550,0.362,187.3,4.419,0.039,6.732,101.7142,3.673,4.735,42.8,0,109.9,13.33,4.44,149.3
"2016-03-09 01:30:00",1441551,0.344,178.7,2.391,0.043,6.644,101.7142,3.673,4.733,42.85,0,109.9,13.34,4.44,140.7
"2016-03-09 01:30:30",1441552,1.701,183.8,7.433,1.382,9.35,101.7153,3.676,4.827,43.03,0,109.9,13.29,4.44,145.8
"2016-03-09 01:31:00",1441553,1.446,184.4,7.364,1.342,9.59,101.7148,3.675,4.805,43.07,0,109.9,13.29,4.44,146.4
"2016-03-09 01:31:30",1441554,1.536,187.9,8.57,1.354,10.75,101.7136,3.672,4.925,43.21,0,109.9,13.29,4.44,149.9
"2016-03-09 01:32:00",1441555,0.814,184.4,6.054,0.971,8.88,101.71,3.663,4.73,43.05,0,109.9,13.29,4.43,146.4
"2016-03-09 01:32:30",1441556,1.886,194.8,7.806,1.356,10.29,101.7069,3.655,4.839,43.18,0,109.9,13.29,4.42,156.8
"2016-03-09 01:33:00",1441557,1.149,192,7.545,1.247,8.71,101.7026,3.644,4.808,43.18,0,109.9,13.29,4.41,154.0
"2016-03-09 01:33:30",1441558,0.423,190.2,1.93,0.038,6.858,101.6979,3.632,4.689,43.07,0,109.9,13.34,4.40,152.2
"2016-03-09 01:34:00",1441559,0.433,193.9,2.236,0.037,6.691,101.6917,3.616,4.699,43.06,0,109.9,13.34,4.38,155.9
"2016-03-09 01:34:30",1441560,0.378,189.9,2.198,0.032,6.965,101.688,3.607,4.695,43.08,0,109.9,13.34,4.37,151.9
"2016-03-09 01:35:00",1441561,0.387,188.5,3.374,0.071,7.461,101.6891,3.61,4.748,43.15,0,109.9,13.34,4.37,150.5
"2016-03-09 01:35:30",1441562,2.064,199,7.708,1.39,10.64,101.6894,3.61,4.904,43.33,0,109.9,13.3,4.37,161.0
"2016-03-09 01:36:00",1441563,1.593,199.9,6.865,1.387,9.96,101.6877,3.606,4.889,43.33,0,109.9,13.3,4.37,161.9
"2016-03-09 01:36:30",1441564,1.918,205.7,8.74,1.342,10.36,101.688,3.607,4.82,43.29,0,109.9,13.3,4.37,167.7
"2016-03-09 01:37:00",1441565,1.206,202.7,7.78,1.25,8.98,101.688,3.607,4.864,43.37,0,109.9,13.3,4.37,164.7
"2016-03-09 01:37:30",1441566,0.995,198.6,5.92,1.191,8.15,101.6897,3.611,4.706,43.22,0,109.9,13.3,4.38,160.6
"2016-03-09 01:38:00",1441567,0.339,188.9,2.688,0.04,6.658,101.6889,3.609,4.676,43.2,0,109.9,13.34,4.37,150.9
"2016-03-09 01:38:30",1441568,0.309,187.1,2.714,0.049,6.803,101.6889,3.609,4.672,43.18,0,109.9,13.34,4.37,149.1
"2016-03-09 01:39:00",1441569,0.278,188,3.473,0.041,6.898,101.6897,3.611,4.693,43.21,0,109.9,13.34,4.38,150.0
"2016-03-09 01:39:30",1441570,0.372,191.5,4.908,0.045,7.272,101.6886,3.608,4.663,43.19,0,109.9,13.35,4.37,153.5
"2016-03-09 01:40:00",1441571,1.618,194.1,8.05,1.398,10.2,101.6889,3.609,4.864,43.4,0,109.9,13.3,4.37,156.1
"2016-03-09 01:40:30",1441572,2.052,193.3,6.504,1.365,11.27,101.6886,3.608,4.791,43.32,0,109.9,13.3,4.37,155.3
"2016-03-09 01:41:00",1441573,1.668,190.1,7.172,1.397,11.13,101.6894,3.61,4.894,43.43,0,109.9,13.3,4.37,152.1
"2016-03-09 01:41:30",1441574,1.358,196.1,7.614,1.284,9.4,101.6889,3.609,4.845,43.4,0,109.9,13.3,4.37,158.1
"2016-03-09 01:42:00",1441575,1.136,194.7,5.665,1.192,8.67,101.6886,3.608,4.751,43.32,0,109.9,13.3,4.37,156.7
"2016-03-09 01:42:30",1441576,0.512,192.8,1.24,0.024,6.67,101.6909,3.614,4.673,43.24,0,109.9,13.34,4.38,154.8
"2016-03-09 01:43:00",1441577,0.502,197.7,1.596,0.049,6.607,101.69,3.612,4.688,43.25,0,109.9,13.34,4.38,159.7
"2016-03-09 01:43:30",1441578,0.548,195.8,2.096,0.037,6.74,101.6897,3.611,4.67,43.24,0,109.9,13.35,4.38,157.8
"2016-03-09 01:44:00",1441579,0.586,200.7,4.159,0.037,7.022,101.6897,3.611,4.671,43.23,0,109.9,13.34,4.38,162.7
"2016-03-09 01:44:30",1441580,1.727,209.2,6.252,1.382,9.23,101.6897,3.611,4.79,43.33,0,109.9,13.3,4.38,171.2
"2016-03-09 01:45:00",1441581,2.445,214.5,8.11,1.32,11.04,101.69,3.612,4.887,43.44,0,109.9,13.3,4.38,176.5
"2016-03-09 01:45:30",1441582,2.169,217.5,6.918,1.41,10.76,101.6906,3.613,4.907,43.47,0,109.9,13.29,4.38,179.5
"2016-03-09 01:46:00",1441583,1.967,218,7.893,1.404,9.87,101.6906,3.613,4.83,43.37,0,109.9,13.29,4.38,180.0
"2016-03-09 01:46:30",1441584,0.613,212.5,1.718,0.044,6.896,101.6926,3.618,4.672,43.23,0,109.9,13.34,4.38,174.5
"2016-03-09 01:47:00",1441585,0.655,209.3,1.341,0.062,6.656,101.6929,3.619,4.669,43.25,0,109.9,13.34,4.38,171.3
"2016-03-09 01:47:30",1441586,0.801,207.9,1.673,0.035,6.825,101.6926,3.618,4.676,43.29,0,109.9,13.34,4.38,169.9
"2016-03-09 01:48:00",1441587,0.857,210.9,2.06,0.06,7.124,101.6929,3.619,4.682,43.28,0,109.9,13.34,4.38,172.9
"2016-03-09 01:48:30",1441588,1.695,215.4,7.833,1.238,8.48,101.6941,3.622,4.786,43.37,0,109.9,13.29,4.39,177.4
"2016-03-09 01:49:00",1441589,2.326,218.2,7.318,1.388,9.73,101.6926,3.618,4.933,43.55,0,109.9,13.29,4.38,180.2